EW9931 Weather Reports


Display with metric or nautical units.
time (UTC)temp
F
wind
direction
speed
MPH
gust
MPH
rain 1hr
in
rain 24hr
in
rain mn
in
humidity
%
barometer
mb
20260905184543 63 171 3.0 0.0 0.00 0.00 0.00 34 1006.6
20260905183038 62 136 3.0 0.0 0.00 0.00 0.00 33 1006.8
20260905181526 62 213 3.0 0.0 0.00 0.00 0.00 27 1007.3
20260905180021 62 217 3.0 0.0 0.00 0.00 0.00 24 1007.3
20260905174521 62 136 3.0 0.0 0.00 0.00 0.00 19 1007.1
20260905173019 61 192 2.0 0.0 0.00 0.00 0.00 15 1007.6
20260905171515 60 196 3.0 0.0 0.00 0.00 0.00 13 1007.5
20260905170013 60 116 3.0 0.0 0.00 0.00 0.00 12 1007.5
20260905164513 60 130 2.0 0.0 0.00 0.00 0.00 14 1007.1
20260905163009 59 157 3.0 0.0 0.00 0.00 0.00 13 1007.0
20260905161507 59 117 3.0 0.0 0.00 0.00 0.00 12 1007.0
20260905160006 59 127 2.0 0.0 0.00 0.00 0.00 13 1006.9
20260905154503 58 191 2.0 0.0 0.00 0.00 0.00 15 1006.8
20260905153001 58 195 2.0 0.0 0.00 0.00 0.00 14 1006.9
20260905151624 57 106 2.0 0.0 0.00 0.00 0.00 15 1006.8
20260905150058 57 128 2.0 0.0 0.00 0.00 0.00 14 1006.7
20260905144556 56 195 1.0 0.0 0.00 0.00 0.00 16 1006.8
20260905143055 55 133 1.0 0.0 0.00 0.00 0.00 17 1006.6
20260905141553 55 200 1.0 0.0 0.00 0.00 0.00 18 1006.5
20260905140053 55 179 1.0 0.0 0.00 0.00 0.00 18 1006.5
20260905134553 55 157 2.0 0.0 0.00 0.00 0.00 17 1006.3
20260905133050 55 191 1.0 0.0 0.00 0.00 0.00 16 1006.0
20260905131558 55 198 2.0 0.0 0.00 0.00 0.00 18 1005.8
20260905130048 55 124 1.0 0.0 0.00 0.00 0.00 20 1005.3
20260905124547 54 154 0.0 0.0 0.00 0.00 0.00 21 1005.2
20260905123104 55 148 1.0 0.0 0.00 0.00 0.00 21 1005.1
20260905121544 55 179 1.0 0.0 0.00 0.00 0.00 21 1005.2
20260905120043 54 138 0.0 0.0 0.00 0.00 0.00 22 1004.6
20260905114545 54 152 0.0 0.0 0.00 0.00 0.00 23 1004.4
20260905113041 53 160 0.0 0.0 0.00 0.00 0.00 25 1004.4
20260905111541 54 143 0.0 0.0 0.00 0.00 0.00 25 1004.6
20260905110039 54 172 0.0 0.0 0.00 0.00 0.00 26 1004.1
20260905104539 54 126 0.0 0.0 0.00 0.00 0.00 26 1004.2
20260905103048 53 172 0.0 0.0 0.00 0.00 0.00 26 1004.1
20260905101537 54 138 1.0 0.0 0.00 0.00 0.00 26 1004.1
20260905100049 54 162 0.0 0.0 0.00 0.00 0.00 27 1004.1
20260905094535 54 150 1.0 0.0 0.00 0.00 0.00 27 1004.1
20260905093035 54 184 1.0 0.0 0.00 0.00 0.00 27 1004.1
20260905091541 54 185 0.0 0.0 0.00 0.00 0.00 28 1004.0
20260905090032 53 133 1.0 0.0 0.00 0.00 0.00 28 1003.6
20260905084530 53 200 1.0 0.0 0.00 0.00 0.00 29 1003.7
20260905083031 54 161 1.0 0.0 0.00 0.00 0.00 29 1003.7
20260905081527 54 140 1.0 0.0 0.00 0.00 0.00 28 1003.9
20260905080034 54 124 1.0 0.0 0.00 0.00 0.00 29 1003.9
20260905074528 54 161 1.0 0.0 0.00 0.00 0.00 28 1003.9
20260905073027 54 126 1.0 0.0 0.00 0.00 0.00 28 1004.0
20260905071525 55 148 1.0 0.0 0.00 0.00 0.00 28 1003.9
20260905070031 55 168 0.0 0.0 0.00 0.00 0.00 28 1004.4
20260905064522 55 144 0.0 0.0 0.00 0.00 0.00 28 1004.5
20260905063022 55 167 0.0 0.0 0.00 0.00 0.00 29 1004.4
20260905061524 55 179 0.0 0.0 0.00 0.00 0.00 28 1004.5
20260905060037 55 150 0.0 0.0 0.00 0.00 0.00 27 1004.5
20260905054520 55 126 0.0 0.0 0.00 0.00 0.00 27 1004.4
20260905053019 55 133 0.0 0.0 0.00 0.00 0.00 27 1004.6
20260905051524 55 152 0.0 0.0 0.00 0.00 0.00 27 1004.6
20260905050021 56 131 0.0 0.0 0.00 0.00 0.00 28 1005.2
20260905044521 56 147 0.0 0.0 0.00 0.00 0.00 26 1005.1
20260905043016 56 157 0.0 0.0 0.00 0.00 0.00 26 1004.9
20260905041515 56 152 0.0 0.0 0.00 0.00 0.00 27 1004.8
20260905040014 56 145 0.0 0.0 0.00 0.00 0.00 28 1005.1
20260905034516 56 124 0.0 0.0 0.00 0.00 0.00 30 1004.9
20260905033013 56 164 0.0 0.0 0.00 0.00 0.00 34 1004.9
20260905031517 56 174 0.0 0.0 0.00 0.00 0.00 35 1004.5
20260905030015 56 160 0.0 0.0 0.00 0.00 0.00 34 1004.6
20260905024514 56 150 0.0 0.0 0.00 0.00 0.00 37 1004.7
20260905023015 56 137 0.0 0.0 0.00 0.00 0.00 40 1004.6
20260905021517 56 154 0.0 0.0 0.00 0.00 0.00 46 1004.4
20260905020007 56 193 0.0 0.0 0.00 0.00 0.00 50 1004.9
20260905014508 57 209 1.0 0.0 0.00 0.00 0.00 51 1005.0
20260905013003 57 205 2.0 0.0 0.00 0.00 0.00 48 1005.1
20260905011500 58 203 2.0 0.0 0.00 0.00 0.00 46 1004.6
20260905010100 59 210 3.0 0.0 0.00 0.00 0.00 42 1004.7
20260905004559 59 193 4.0 0.0 0.00 0.00 0.00 39 1004.9
20260905003059 60 278 4.0 0.0 0.00 0.00 0.00 36 1004.3
20260905001608 61 212 4.0 0.0 0.00 0.00 0.00 33 1004.6
20260904234557 62 202 3.0 0.0 0.00 0.00 0.00 30 1003.9
20260904233106 63 136 3.0 0.0 0.00 0.00 0.00 31 1004.1
20260904231556 63 205 3.0 0.0 0.00 0.00 0.00 28 1004.2
20260904230055 63 230 3.0 0.0 0.00 0.00 0.00 28 1004.3
20260904224554 64 208 3.0 0.0 0.00 0.00 0.00 28 1004.2
20260904223057 65 205 2.0 0.0 0.00 0.00 0.00 27 1004.3
20260904221555 64 106 3.0 0.0 0.00 0.00 0.00 26 1004.3
20260904220106 64 116 3.0 0.0 0.00 0.00 0.00 23 1004.4
20260904214553 64 213 3.0 0.0 0.00 0.00 0.00 26 1004.5
20260904213052 64 202 3.0 0.0 0.00 0.00 0.00 24 1004.5
20260904211551 65 220 2.0 0.0 0.00 0.00 0.00 26 1004.3
20260904210056 65 232 2.0 0.0 0.00 0.00 0.00 23 1004.1
20260904204548 66 162 2.0 0.0 0.00 0.00 0.00 22 1004.1
20260904203049 66 210 2.0 0.0 0.00 0.00 0.00 21 1004.2
20260904201558 65 186 2.0 0.0 0.00 0.00 0.00 23 1004.0
20260904200045 65 236 1.0 0.0 0.00 0.00 0.00 20 1004.0
20260904194538 64 131 3.0 0.0 0.00 0.00 0.00 24 1004.1
20260904193035 64 172 2.0 0.0 0.00 0.00 0.00 24 1004.3
20260904191535 63 198 4.0 0.0 0.00 0.00 0.00 24 1004.3
20260904190026 63 220 4.0 0.0 0.00 0.00 0.00 23 1005.0